Tracking 25710 objects as of 6-Jul-2022
HD Live streaming from Space Station
objects crossing your sky now

FENGYUN 1C DEB

Track FENGYUN 1C DEB now!
10-day predictions


NORAD ID: 31879
Int'l Code: 1999-025CKE
Perigee: 613.5 km
Apogee: 937.8 km
Inclination: 99.7 °
Period: 100.2 minutes
Semi major axis: 7146 km
RCS: 0.0119 m2 (small)
Launch date: May 10, 1999
Source: People's Republic of China (PRC)
Launch site: Taiyaun Space Center, China (TSC)

Note: This is SATELLITE DEBRIS
aabbcc
Your satellite tracking list
Your tracking list is empty




NASA's NSSDC Master Catalog

Two Line Element Set (TLE):
1 31879U 99025CKE 22185.11229925  .00000298  00000-0  91125-4 0  9993
2 31879  99.7157 239.4345 0226911  64.5276 297.9193 14.36972371451158
Source of the keplerian elements: AFSPC